Dewpoint
52 54 54 56 57 58 58 59 59 59 59 58 58 58 58 58 58 59 59 58 58 58 58 58 58 58 58 58 58 58 58 58 58 58 57 58 58 58 57 57 57 57 56 57 57 57 57 56 57 57 57 57 56 56 56 57 56 56 55 54 53 53 53 51 50 49 41 39 41 37 32 31 32 32 32 32 32 31 31 29 28 28 27 26 30
52 53 55 56 56 57 57 58 59 58 58 58 58 58 58 58 58 58 58 58 58 58 58 59 58 58 58 58 58 58 58 58 58 58 58 58 58 58 57 57 57 57 56 56 57 57 56 56 56 56 57 57 56 56 56 55 54 53 52 52 52 51 51 50 49 48 47 32 33 31 30 30 30 32 32 30 29 31 29 28 28 28 27 28 28
52 53 54 55 56 57 57 58 58 58 58 58 58 58 58 58 58 58 58 58 58 59 59 59 59 59 58 58 58 58 59 59 59 59 58 58 57 57 57 57 57 56 56 56 57 57 56 56 56 56 57 57 56 56 55 54 53 51 51 50 50 51 51 51 49 45 46 43 32 30 29 30 30 30 30 30 30 31 30 28 27 29 30 28 26
52 53 54 55 56 56 57 58 58 58 57 58 58 58 59 59 59 59 59 59 59 59 59 59 59 59 59 59 59 59 59 59 59 59 59 58 57 57 57 57 57 57 57 57 56 56 55 55 55 56 56 55 54 54 53 52 51 49 49 49 48 50 50 49 49 48 46 45 34 31 29 30 28 30 31 30 30 30 28 28 28 28 29 29 27
51 52 53 54 55 56 56 57 57 58 57 57 57 58 58 59 59 59 59 59 59 59 59 59 59 59 59 59 59 58 59 59 59 58 58 58 58 57 57 57 57 57 57 57 53 56 56 55 55 55 55 54 53 51 49 47 47 47 48 48 47 47 45 43 42 42 42 42 35 29 29 28 28 27 28 27 27 27 27 26 26 26 27 27 28
50 52 53 53 54 55 56 56 57 57 57 56 56 58 58 58 59 59 59 59 59 59 59 59 59 59 59 59 59 59 59 58 58 58 58 58 58 57 57 57 57 57 57 57 57 56 56 55 55 54 54 52 52 50 48 46 46 46 45 44 44 43 41 41 41 41 41 41 36 28 27 27 26 26 27 26 26 25 25 25 26 26 25 25 26
47 50 52 53 53 54 54 55 56 56 56 57 56 57 57 58 58 58 58 59 59 59 59 58 58 59 59 59 59 59 59 58 58 58 58 58 57 57 57 57 57 57 56 56 56 56 56 55 54 54 52 51 51 50 48 47 45 44 44 44 43 43 43 43 39 38 38 38 34 34 31 28 26 24 26 26 25 24 23 23 24 23 23 24 24
43 46 49 51 51 52 53 54 54 55 55 56 56 56 56 57 57 57 57 57 58 58 58 58 58 58 58 58 58 58 58 58 58 58 58 58 57 57 57 56 56 56 55 55 55 55 55 54 54 53 51 51 51 50 47 45 43 43 43 43 42 41 42 41 38 38 38 37 36 33 28 25 24 24 25 25 24 24 24 24 25 24 25 25 24
41 43 45 47 49 50 52 52 53 53 53 54 54 55 55 55 55 56 56 56 57 58 58 58 57 57 57 57 57 57 57 57 57 57 57 57 57 57 56 56 55 54 54 53 52 52 52 52 51 50 49 44 44 45 44 44 45 44 44 43 42 41 41 39 37 36 37 36 35 29 27 25 25 23 23 24 24 24 26 25 25 26 26 26 26
41 41 42 44 46 48 49 50 50 50 51 51 52 52 52 52 52 53 53 54 54 54 55 56 56 56 55 55 56 56 56 57 51 49 50 56 56 56 55 55 54 54 52 50 48 47 47 48 47 42 41 40 41 41 42 42 42 46 45 43 41 41 39 36 36 34 33 33 35 27 28 27 24 24 24 25 24 27 25 26 26 25 25 25 25
41 42 42 43 44 45 46 47 48 49 49 50 50 49 50 48 48 48 49 49 50 50 51 53 53 54 55 54 54 55 55 55 48 48 48 49 54 55 54 53 53 52 50 48 47 44 43 43 43 40 39 38 39 39 41 40 40 40 40 40 40 42 37 36 35 35 34 36 35 30 29 28 25 26 24 25 26 26 25 27 26 26 25 24 23
41 41 42 43 42 43 44 45 45 46 47 48 47 46 46 45 45 46 46 46 46 45 47 49 51 51 52 52 53 54 54 47 47 47 47 47 47 53 53 53 51 51 48 47 47 45 43 41 40 41 41 41 41 40 39 38 39 39 38 38 38 38 39 38 36 34 33 34 34 31 28 28 27 24 26 26 25 25 26 26 26 26 26 24 23
39 40 41 42 42 43 43 43 43 44 44 44 45 45 44 44 44 44 45 45 44 45 46 46 46 46 48 49 49 49 49 46 46 46 46 46 46 48 52 52 50 48 47 46 45 44 42 41 39 39 40 36 38 40 41 40 37 37 37 36 37 37 38 38 37 37 35 34 34 33 28 27 26 26 25 25 27 27 25 24 25 25 26 24 23
38 39 39 40 41 42 42 42 42 42 42 42 43 43 43 44 44 44 43 42 43 43 44 44 44 44 45 46 46 46 46 44 44 45 45 45 45 46 51 50 48 46 45 45 44 43 42 42 40 39 38 38 39 39 41 40 40 38 37 37 37 35 36 36 36 34 33 35 34 34 30 26 26 25 26 29 28 27 26 26 26 26 26 25 24
39 39 40 40 40 41 42 42 41 42 41 41 41 41 42 42 42 43 43 43 43 43 44 43 43 43 43 44 45 45 46 43 43 44 44 44 44 44 49 47 45 44 43 43 43 42 41 42 42 41 40 39 38 39 39 40 40 39 38 36 36 34 34 34 34 33 31 33 32 30 28 26 25 20 25 27 28 27 28 28 28 27 27 26 24
39 40 40 40 41 41 41 41 41 41 41 40 40 40 41 41 41 42 41 42 42 43 42 43 43 42 43 43 44 44 45 42 42 42 43 44 44 45 45 43 42 41 40 41 41 41 40 40 40 40 39 40 37 36 37 38 37 35 35 34 34 32 31 32 32 33 30 28 27 26 22 23 28 23 27 27 27 28 26 25 26 25 22 20 19
38 40 39 40 40 41 41 41 41 40 40 40 40 40 40 40 41 42 41 42 42 42 42 42 42 43 42 42 43 44 44 41 40 41 42 43 43 43 41 41 41 40 40 40 40 39 40 40 41 41 41 41 36 37 37 36 35 34 34 33 32 31 31 29 30 32 32 31 30 30 29 30 30 32 33 32 28 28 24 22 22 22 20 18 19
38 39 39 39 40 41 42 41 40 40 40 40 40 40 41 42 42 40 42 41 41 42 41 41 40 40 41 41 42 43 43 39 39 40 41 42 42 42 41 40 39 39 39 39 39 39 39 36 38 41 40 39 36 36 36 35 35 34 33 33 31 31 31 28 29 32 34 33 32 32 32 32 33 32 33 33 32 29 24 20 24 21 20 19 17
38 38 39 39 40 41 42 41 41 40 40 40 40 40 40 40 40 39 41 43 42 41 39 40 39 39 38 40 37 41 42 39 38 40 41 41 40 41 40 39 38 38 37 37 37 38 38 35 35 37 39 37 36 37 36 34 34 33 33 33 33 32 32 30 30 31 30 29 29 29 29 32 30 27 30 34 32 28 26 25 25 20 18 19 18
37 39 39 40 39 39 41 40 40 39 39 39 40 40 39 39 40 39 39 40 39 40 40 39 39 39 37 38 37 39 41 39 37 39 40 41 41 40 39 40 39 37 37 37 36 34 35 36 35 36 37 36 37 37 36 35 34 33 32 33 33 33 30 30 30 30 30 29 29 29 29 29 29 29 30 31 29 25 25 23 23 23 18 17 16
37 36 38 40 40 40 40 40 39 39 39 39 39 38 39 40 39 38 39 39 39 38 38 38 38 38 38 37 37 37 38 39 36 38 40 40 40 40 39 40 39 38 37 36 37 37 36 36 35 35 36 36 37 36 36 35 34 32 32 33 32 31 30 28 29 30 29 28 28 27 27 27 28 28 28 30 28 27 25 24 22 21 20 17 16
36 36 37 38 39 39 38 38 38 38 38 38 38 38 38 38 38 38 40 39 37 37 37 37 39 39 38 36 36 37 36 36 38 37 39 39 40 40 39 39 39 38 37 37 37 37 37 37 36 34 35 36 36 36 36 35 34 30 31 33 32 30 29 28 28 27 26 25 25 25 25 25 25 25 26 28 28 27 27 26 26 23 22 23 19
35 36 37 37 36 36 37 37 37 38 38 38 38 38 37 37 37 37 38 37 37 36 36 37 37 38 38 37 36 36 36 36 36 37 37 39 39 39 39 38 38 37 38 37 36 36 36 36 34 33 35 35 36 36 36 34 32 30 32 32 31 29 27 25 26 25 25 25 25 24 24 25 24 25 25 26 27 28 27 27 26 25 24 23 23
36 36 35 35 36 35 36 36 36 37 37 37 37 37 37 37 37 37 37 38 37 36 37 36 37 37 36 36 36 36 35 35 35 35 36 38 39 39 39 38 38 37 37 37 37 36 34 33 32 33 34 34 35 36 36 34 30 32 32 32 30 27 25 25 24 24 24 24 24 24 24 24 24 24 24 26 26 26 26 26 25 24 25 25 23
35 34 35 35 34 34 35 35 36 36 36 37 37 37 37 36 36 37 37 37 37 37 37 36 36 37 36 36 36 35 35 35 36 35 35 36 38 38 38 38 37 37 36 36 37 36 33 33 32 33 33 34 35 35 35 34 33 32 32 31 27 24 23 23 23 23 22 22 22 22 22 23 23 24 24 25 25 25 24 23 24 24 24 24 24
34 34 34 34 34 34 34 34 35 35 36 37 37 37 37 36 37 36 36 37 37 36 37 36 36 36 36 37 36 35 35 35 35 35 34 35 36 37 37 36 35 34 34 34 32 32 32 32 32 33 33 33 33 33 33 33 32 32 30 27 26 23 23 22 22 21 21 21 21 20 20 21 22 23 23 24 23 22 22 21 21 21 21 21 20
33 33 33 33 34 34 34 34 35 35 36 36 36 37 37 37 36 36 36 36 36 36 36 36 36 37 36 36 36 36 35 34 35 35 34 35 35 35 35 34 33 32 32 31 30 30 31 31 31 32 32 31 31 32 32 32 31 30 28 26 24 23 23 22 22 22 21 20 20 20 21 21 22 22 21 21 20 20 22 20 20 19 19 19 18
33 33 33 33 33 33 34 33 34 35 35 36 36 36 37 37 36 36 36 36 36 36 36 36 36 36 36 36 35 35 34 34 34 35 34 35 35 35 35 34 33 33 32 31 31 30 31 30 30 30 30 30 29 29 31 31 31 29 27 26 24 24 26 26 25 23 22 22 21 21 21 21 21 21 21 21 21 20 20 20 19 19 18 18 17
33 33 33 33 33 33 34 34 34 35 35 35 36 36 37 36 36 36 37 37 37 37 37 36 36 36 36 36 36 35 34 34 35 35 35 35 35 35 34 33 33 32 31 31 28 28 28 27 27 28 27 27 27 28 28 29 29 28 27 26 25 24 24 23 23 23 23 23 23 23 22 22 21 22 21 21 20 20 20 19 19 18 18 17 16
33 33 33 33 33 33 33 34 34 34 35 35 35 36 35 35 36 37 36 35 35 35 36 36 37 37 37 37 36 35 35 35 35 35 35 35 35 35 34 33 33 31 30 30 28 26 26 26 26 26 26 26 26 26 27 27 26 27 27 27 26 26 26 25 25 25 25 24 24 23 23 22 21 21 21 20 20 20 19 19 18 18 17 16 16
33 33 33 33 33 33 33 34 34 35 35 35 35 35 35 35 34 34 35 35 35 35 34 35 36 35 36 37 35 35 35 35 34 34 34 35 35 34 34 33 32 31 31 27 26 26 24 23 23 23 24 25 25 25 25 25 25 26 26 27 27 26 26 25 24 25 25 24 24 23 23 22 21 21 20 20 19 19 18 18 18 17 16 16 15
33 33 33 33 33 33 34 34 34 34 35 35 35 35 34 34 34 33 32 33 34 34 35 34 34 35 35 35 35 35 33 33 34 34 34 34 34 34 33 33 32 31 29 29 24 22 22 22 21 22 22 22 23 22 23 24 24 24 23 24 25 25 25 25 25 25 24 24 23 23 22 22 21 21 20 19 19 18 18 17 17 16 16 16 15
32 33 33 33 34 33 34 34 34 34 34 34 34 34 34 34 34 33 33 31 32 33 34 34 34 34 35 34 34 34 34 33 33 33 33 33 33 32 32 32 31 30 29 26 26 22 21 21 20 20 20 20 21 22 22 22 22 22 23 22 22 22 23 24 24 23 23 22 22 21 21 21 20 19 19 19 18 17 17 16 16 16 16 15 15
32 33 33 34 34 34 34 34 34 34 34 34 34 34 33 34 34 33 32 31 32 32 31 33 33 33 34 34 33 33 33 33 32 32 33 33 32 32 31 30 30 29 27 25 23 21 20 20 19 19 19 19 20 20 20 20 20 20 21 21 20 20 20 20 21 20 20 21 20 19 19 19 19 18 18 18 18 17 16 16 16 15 15 15 14
31 31 30 31 34 34 34 34 34 34 34 34 34 33 33 33 33 33 32 31 31 31 31 31 31 32 33 33 33 33 32 32 32 33 33 32 32 32 31 29 27 26 25 23 22 21 20 20 19 19 19 19 19 19 19 20 19 19 19 18 18 18 18 18 19 19 19 18 18 18 18 17 18 17 17 16 16 15 15 15 15 15 14 13 13
30 31 33 32 33 34 34 34 34 34 34 34 34 33 33 33 32 32 31 31 31 31 30 30 30 31 31 32 32 32 32 32 32 33 33 32 32 31 28 27 26 25 23 22 22 21 20 20 19 19 19 19 20 19 19 19 19 19 19 18 18 17 17 17 17 17 18 17 17 17 17 17 16 16 16 15 16 15 14 14 14 14 14 13 13
29 31 32 32 33 33 33 34 34 34 33 33 33 33 32 32 31 31 31 31 30 29 28 27 28 29 30 29 31 31 32 32 32 32 32 32 32 30 29 27 26 24 22 21 21 20 20 20 20 21 21 20 21 20 20 20 20 20 21 19 19 19 18 18 18 17 17 17 17 17 17 16 16 16 15 15 15 14 14 14 14 13 13 13 12
27 29 30 31 32 32 33 33 33 32 33 33 33 32 32 31 31 30 30 29 28 27 26 27 28 28 28 29 30 31 31 31 31 31 31 31 30 29 29 27 25 23 22 21 21 21 21 21 22 21 21 21 21 21 21 21 20 20 20 20 20 19 20 19 19 18 18 17 17 17 16 16 16 15 15 14 13 14 13 13 13 12 12 12 12
26 27 28 29 30 32 32 32 32 32 32 32 31 31 30 30 30 30 30 29 26 26 26 27 27 28 28 29 29 30 30 29 29 29 30 30 29 29 28 26 25 23 22 22 22 22 22 22 22 22 21 21 21 21 20 20 20 20 20 19 19 19 18 17 17 17 17 17 16 16 16 15 15 14 14 14 13 13 13 12 12 12 11 11 10
24 25 27 27 28 29 30 30 31 31 30 31 31 31 29 29 29 28 27 27 26 26 27 25 26 26 26 27 28 29 28 27 27 28 27 26 25 25 25 24 23 22 22 22 22 22 21 21 21 21 20 20 19 18 17 16 16 16 16 16 16 16 16 16 15 15 15 15 14 14 13 13 12 12 12 12 12 12 11 11 11 11 11 10 10
22 24 22 26 26 28 27 28 28 29 29 29 30 29 29 28 27 27 26 25 25 24 24 24 24 23 24 24 27 28 27 26 25 23 23 22 22 23 23 22 21 21 21 20 20 20 19 18 17 16 15 15 15 13 13 13 13 13 13 13 13 12 11 12 11 11 12 12 12 11 11 11 11 11 10 11 11 10 10 10 10 10 10 10 9
21 22 23 24 24 25 26 25 26 25 27 27 28 29 27 26 26 26 24 24 22 22 22 21 19 19 21 25 25 25 23 21 21 20 19 20 20 21 20 21 21 21 20 18 18 16 15 14 13 12 12 11 10 10 10 10 10 10 10 9 9 9 8 8 8 9 9 9 9 9 9 9 8 8 8 10 8 9 9 9 8 8 8 7 7
20 21 22 22 23 24 24 25 26 26 26 26 26 23 24 25 25 23 23 22 20 20 19 18 17 18 19 20 19 19 16 16 15 16 16 16 16 14 14 15 15 15 15 15 15 15 14 12 10 10 9 9 9 9 9 8 8 7 7 7 7 6 6 6 6 7 7 7 7 6 5 5 6 5 6 6 6 6 5 5 6 5 6 6 5
18 19 20 20 21 22 22 23 23 23 25 23 23 22 22 22 22 22 22 21 18 17 18 17 15 15 15 16 16 16 16 14 14 14 14 13 12 10 9 8 7 8 8 9 9 10 9 8 8 7 7 6 6 7 6 6 6 6 6 5 5 5 5 5 5 5 5 4 3 3 2 2 2 2 3 3 4 3 4 5 4 4 4 4 4
17 18 18 19 19 19 20 20 21 21 20 20 20 20 19 21 20 20 19 18 15 16 16 15 13 13 13 14 15 15 14 13 12 12 12 9 7 7 6 6 6 6 6 6 7 7 7 6 5 4 4 3 4 4 3 3 4 4 4 4 4 3 3 3 4 3 2 2 1 0 -0 -0 -0 -0 0 1 2 2 2 3 3 4 4 4 3
16 17 17 17 17 17 17 18 17 18 18 19 19 18 18 18 18 17 16 16 14 14 13 13 13 12 12 13 13 11 12 10 9 7 7 6 6 5 5 5 4 4 4 4 5 6 5 4 4 3 3 2 2 2 1 1 1 1 2 2 2 2 2 1 1 1 1 0 -1 -1 -1 -1 -1 -1 -0 0 1 2 2 2 2 2 2 2 2
15 15 15 15 15 15 15 15 15 16 17 17 17 17 17 16 15 13 13 12 12 11 11 11 11 11 11 11 10 10 9 8 6 6 6 5 5 4 4 3 3 2 2 3 4 3 4 4 3 3 2 1 1 0 -0 -0 -0 -0 -0 -0 -0 -0 -1 -1 -1 -0 -1 -1 -1 -2 -2 -2 -2 -1 -0 -0 0 0 0 -0 -0 -0 0 0 -0
14 14 14 13 13 13 13 13 13 12 13 13 14 13 13 12 12 11 11 11 10 11 11 11 10 9 9 8 7 7 6 6 5 5 4 3 3 3 3 3 2 1 2 2 2 2 2 2 2 2 1 0 0 -1 -1 -1 -1 -2 -2 -2 -1 -1 -1 -1 -2 -1 -2 -2 -2 -2 -2 -3 -3 -2 -2 -2 -2 -1 -2 -2 -1 -1 -1 -1 -1
13 12 12 12 12 12 12 12 12 12 11 11 10 10 10 10 9 10 10 10 9 9 9 8 7 6 5 5 5 5 5 4 4 4 3 3 2 2 2 2 1 1 1 0 1 1 1 1 1 1 0 0 -0 -1 -1 -1 -2 -2 -2 -2 -2 -0 -1 -2 -2 -2 -2 -2 -2 -3 -3 -3 -3 -3 -2 -3 -3 -2 -3 -2 -2 -2 -2 -1 -2
11 10 10 10 10 9 10 10 9 9 9 9 8 8 8 7 7 7 7 6 6 5 5 5 4 4 4 4 3 3 3 3 3 3 2 2 2 2 1 1 1 1 0 0 -0 -0 -0 -0 -0 -0 -0 -1 -1 -1 -2 -2 -2 -2 -2 -2 2 2 1 0 -1 -1 -1 -1 -1 -2 -2 -3 -3 -3 -3 -3 -3 -4 -4 -4 -4 -4 -4 -4 -4
9 9 9 9 8 8 8 8 8 8 8 8 7 7 6 5 5 5 5 4 4 3 3 3 3 3 3 3 3 3 3 2 2 2 2 2 1 1 1 1 0 0 0 0 -0 -1 -1 -1 -1 -1 -2 -2 -2 -2 -2 -2 -2 -3 -1 1 3 2 1 1 0 1 0 1 -0 -1 -2 -3 -3 -3 -3 -4 -4 -5 -5 -4 -4 -5 -5 -4 -4